Tracking 31027 objects as of 19-Jul-2025
HD Live streaming from Space Station
objects crossing your sky now

YZ-1S DEB

Track YZ-1S DEB now!
10-day predictions


NORAD ID: 43644
Int'l Code: 2018-077C
Perigee: 661.7 km
Apogee: 673.4 km
Inclination: 98.0 °
Period: 97.9 minutes
Semi major axis: 7038 km
RCS: Unknown
Launch date: October 9, 2018
Source: People's Republic of China (PRC)
Launch site: Jiuquan Satellite Launch Center, China (JSC)

Note: This is SATELLITE DEBRIS
Your satellite tracking list
FENGYUN 1C DEB
Track 1 satellite(s)




NASA's NSSDC Master Catalog

Two Line Element Set (TLE):
1 43644U 18077C   25199.58923457  .00001892  00000-0  32184-3 0  9994
2 43644  97.9633 244.8671 0008289  58.1148 302.0864 14.70212855361587
Source of the keplerian elements: AFSPC